Tracking 17782 objects as of 26-July-2016
HD Live streaming from Space Station
objects crossing your sky now

CZ-4 DEB

Track CZ-4 DEB now!
10-day predictions


NORAD ID: 26259
Int'l Code: 1999-057EV
Perigee: 670.4 km
Apogee: 799.2 km
Inclination: 98.5 °
Period: 99.4 minutes
Semi major axis: 7105 km
RCS: 0.031 m2 (small)
Launch date: October 14, 1999
Source: People's Republic of China (PRC)
Launch site: Taiyaun Space Center, China (TSC)

Note: This is SATELLITE DEBRIS
Your satellite tracking list
Your tracking list is empty





NASA's NSSDC Master Catalog

Two Line Element Set (TLE):
1 26259U 99057EV  16207.49385921  .00000669  00000-0  17884-3 0  9993
2 26259  98.5267 179.7950 0090595 306.3856 181.8116 14.49384365858532
Source of the keplerian elements: AFSPC

N2YO: 686